User: anonymous   Login
Location: Unspecified
(0.0000°N, 0.0000°E)
Time: 01:03:24
(UTC+00:00)
Language:

Kosmos-2218 - Orbit

View from above orbital plane
View from above orbital plane
View from above satellite
View from above satellite

Ground track
Ground track

The orbit data is extracted from the following two-line orbital elements,

1 22207U 92073A   17324.55441111 +.00000028 +00000-0 +13948-4 0  9992
2 22207 082.9194 293.4899 0033950 060.6953 076.7343 13.72864055255363
Epoch (UTC): 20 November 2017 13:18:21
Eccentricity: 0.0033950
inclination: 82.9194°
perigee height: 964 km
apogee height: 1014 km
right ascension of ascending node: 293.4899°
argument of perigee: 60.6953°
revolutions per day: 13.72864055
mean anomaly at epoch: 76.7343°
orbit number at epoch: 25536

The dashed part of the orbit path shows where the satellite is in the earth's shadow,  

DLR